Temperature
23 22 22 21 20 20 21 22 23 22 21 22 22 21 20 19 19 19 19 19 19 19 18 18 18 18 18 18 18 18 18 18 18 18 18 18 18 18 18 18 18 18 18 18 18 18 18 18 18
23 22 22 21 20 20 21 22 22 22 22 22 22 21 19 18 18 19 19 19 19 19 19 19 18 18 18 18 18 18 18 18 18 18 18 18 18 18 18 18 18 18 18 18 18 18 18 18 17
23 22 22 20 21 21 22 23 22 23 23 22 21 20 19 19 19 19 19 19 19 19 19 19 18 18 19 19 18 18 18 18 18 18 18 18 18 18 18 18 18 18 18 18 18 18 17 17 17
23 23 22 21 22 22 23 23 23 23 23 22 21 20 19 20 20 20 19 19 19 19 19 19 19 19 19 19 18 18 18 18 18 18 18 18 18 18 18 18 18 18 18 18 18 18 17 17 17
24 23 21 21 23 23 23 24 23 23 22 22 21 19 19 19 20 20 20 19 19 19 19 19 19 19 18 18 18 18 18 18 18 18 18 18 18 18 18 18 18 18 18 18 18 17 17 17 17
24 22 21 22 23 24 24 24 23 22 22 21 21 19 19 20 20 20 20 19 19 19 19 19 19 18 18 18 18 18 18 18 18 18 18 18 18 18 18 18 18 18 18 18 17 17 17 17 17
24 21 22 23 23 24 24 24 23 22 22 21 21 19 19 19 20 20 20 19 19 19 19 19 19 18 18 18 18 18 18 18 18 18 18 18 18 18 18 18 18 18 17 17 17 17 17 17 17
25 21 23 23 23 24 24 24 23 23 22 22 22 20 19 20 20 20 19 19 19 19 19 19 19 19 18 18 18 18 18 18 18 18 18 18 18 18 18 18 18 17 17 17 17 17 17 17 17
26 22 22 23 24 24 24 24 23 23 23 22 22 22 22 20 20 19 19 19 19 19 19 19 19 19 19 19 18 18 18 18 18 18 18 18 18 18 18 17 17 17 17 17 17 17 17 17 17
25 22 24 24 24 24 24 24 24 23 22 22 22 22 21 20 20 20 20 20 19 19 19 19 19 19 19 19 18 18 18 18 18 18 18 18 18 18 17 17 17 17 17 17 17 17 17 17 17
25 24 25 25 26 25 24 24 24 23 21 22 22 22 21 20 20 20 20 20 20 20 19 19 19 19 19 19 18 18 18 18 18 18 18 18 18 18 17 17 17 17 17 17 17 17 17 17 17
26 26 26 26 27 26 25 24 24 23 24 24 23 23 21 21 21 21 21 20 20 20 19 19 19 19 19 19 19 18 18 18 18 18 18 18 18 18 18 17 17 17 17 17 17 17 17 17 17
27 27 27 27 27 26 25 24 24 23 24 24 23 22 22 21 21 21 21 20 20 20 20 19 19 19 19 19 19 18 18 18 18 18 18 18 18 18 18 17 17 17 17 17 17 17 17 17 17
27 26 26 26 26 26 25 24 24 23 24 23 23 22 22 22 22 21 21 21 20 20 20 20 19 19 19 19 19 18 18 18 18 18 18 18 18 18 18 17 17 17 17 17 17 17 17 17 17
27 25 25 26 26 25 25 24 23 23 23 22 22 22 22 22 22 22 22 21 21 21 20 20 20 19 19 19 19 18 18 18 18 18 18 18 18 18 18 17 17 17 17 17 17 17 17 17 17
25 25 25 26 25 25 25 24 23 23 23 22 21 22 22 22 22 22 22 22 21 21 20 20 20 19 19 19 19 18 18 18 18 18 18 18 18 18 18 18 18 17 17 17 17 17 17 17 17
24 24 25 25 25 25 24 24 23 23 23 22 21 21 22 22 22 22 22 22 21 21 21 20 20 20 19 19 19 18 18 18 18 18 18 18 18 18 18 18 18 17 17 17 17 17 17 18 17
25 25 25 25 25 25 24 24 23 23 22 22 22 22 22 22 23 23 22 22 22 21 21 20 20 20 19 19 19 18 18 18 18 18 18 18 18 18 18 18 18 17 17 17 17 17 17 17 17
26 25 25 25 25 25 24 24 23 22 22 22 22 22 22 23 23 23 23 22 22 21 21 20 20 20 20 19 19 19 19 18 18 18 18 18 18 18 18 18 18 18 17 17 17 17 17 17 17
25 25 25 25 25 25 24 24 23 22 22 22 22 22 23 23 23 23 23 22 22 22 21 21 21 20 20 20 19 19 19 19 18 18 18 18 18 18 18 18 18 18 18 17 17 17 17 17 17
26 25 25 25 25 24 25 24 23 23 23 23 23 23 23 23 24 23 23 23 22 22 22 21 21 20 20 20 19 19 19 19 19 18 18 18 18 18 18 18 18 18 18 18 17 17 17 17 17
25 26 26 25 24 23 24 23 23 22 22 22 23 23 23 24 24 24 24 23 23 23 22 22 21 21 20 20 20 19 19 19 19 19 18 18 18 18 18 18 18 18 18 17 17 17 17 17 17
26 25 25 24 23 22 23 23 22 22 22 22 23 23 24 24 24 24 24 24 24 23 22 22 21 21 21 20 20 20 19 19 19 19 19 18 18 18 18 18 18 18 18 18 17 17 17 17 17
26 24 22 20 20 22 23 23 23 21 22 22 23 24 24 25 25 25 25 24 24 23 23 22 22 21 21 21 20 20 20 19 19 19 19 19 18 18 18 18 18 18 18 18 17 17 17 17 17
24 22 22 22 21 21 22 22 21 23 22 23 23 24 25 25 25 25 24 24 24 24 23 23 22 22 21 21 21 20 20 20 19 19 19 19 19 18 18 18 18 18 18 18 18 17 17 17 17
24 22 22 23 22 21 22 22 22 23 23 24 25 25 25 25 25 25 25 25 25 24 24 23 23 22 22 21 21 21 20 20 20 19 19 19 19 19 18 18 18 18 18 18 17 17 17 17 17
23 22 21 20 21 21 21 21 22 23 22 22 23 24 24 25 25 25 25 25 25 25 24 24 23 23 22 22 21 21 21 20 20 19 19 19 19 18 18 18 18 18 18 18 17 17 17 17 17
23 20 18 19 20 22 22 22 22 23 22 22 21 22 24 25 25 26 25 25 25 25 24 24 23 23 23 22 22 21 21 20 20 19 19 19 19 18 18 18 18 18 18 18 17 17 17 17 17
22 21 18 17 19 20 21 21 22 21 21 21 21 23 24 24 25 25 25 25 25 25 24 24 23 23 22 22 22 21 21 20 20 19 19 19 19 18 18 18 18 18 18 18 17 17 17 17 17
23 21 18 21 20 18 19 21 22 20 20 20 21 22 23 24 25 25 25 25 24 24 24 24 23 23 23 22 22 21 21 20 20 20 19 19 19 18 18 18 18 18 18 17 17 17 17 17 16
Wind_Speed
14 10 4 1 4 5 4 4 2 3 3 3 5 7 7 4 2 4 2 6 6 6 7 10 11 12 12 13 14 14 15 15 15 15 15 15 15 14 14 14 13 13 13 13 13 14 13 14 14
10 6 2 3 5 4 3 3 3 3 5 6 6 6 7 5 4 6 4 5 7 7 8 9 12 12 12 12 13 14 14 14 13 13 14 14 13 13 13 13 13 12 12 12 13 13 13 14 14
8 3 3 4 4 3 2 1 5 5 5 4 5 6 5 4 4 5 5 8 8 7 7 9 12 12 12 12 12 13 13 13 13 12 12 12 12 12 12 11 11 11 11 11 12 12 13 13 13
4 2 3 5 3 1 3 4 6 6 5 6 5 6 4 3 5 6 8 9 8 6 8 9 11 11 11 12 12 12 12 12 12 11 11 11 11 11 11 10 10 10 10 11 11 12 12 12 12
2 4 5 4 3 2 3 5 3 4 4 5 5 5 4 3 8 11 10 8 8 6 7 9 11 11 11 11 11 11 11 11 11 10 10 10 10 10 10 9 9 9 9 10 10 11 11 11 10
3 4 5 2 2 3 3 3 4 6 6 6 6 5 3 4 8 10 9 7 6 6 6 7 10 10 10 11 10 10 10 10 10 10 9 9 9 9 8 8 8 8 9 9 10 10 9 9 9
3 4 3 3 2 2 3 3 4 6 6 5 5 5 3 3 6 9 8 6 5 5 4 4 6 8 10 10 10 9 9 9 9 9 8 8 8 8 7 7 7 7 8 8 9 9 8 8 8
4 5 3 1 3 2 5 4 4 6 5 6 5 7 6 6 8 8 7 6 5 4 3 3 4 5 6 7 9 8 8 8 8 8 8 7 7 7 6 6 7 6 7 7 8 8 7 7 6
3 5 2 4 6 4 6 5 3 3 7 3 3 5 7 14 12 9 6 4 4 4 2 2 3 4 5 5 7 7 7 7 6 6 7 6 5 5 5 5 6 6 6 7 7 7 6 5 5
4 3 5 4 6 6 7 6 6 5 5 3 5 7 12 15 13 11 9 9 8 7 5 4 4 4 4 4 4 4 4 4 4 4 4 4 4 3 3 4 4 5 6 6 6 6 5 5 4
4 5 3 2 5 8 8 6 5 9 5 7 10 14 16 14 12 11 10 9 8 7 6 5 5 4 4 3 3 3 3 3 3 3 4 4 3 2 2 1 1 2 3 3 3 4 4 4 3
3 1 2 3 5 7 8 7 5 6 6 8 14 17 16 16 14 13 12 10 7 6 7 6 5 4 5 4 3 4 3 3 3 3 4 3 2 1 1 1 1 1 1 2 2 3 3 2 2
2 0 1 3 6 7 7 5 4 4 4 11 14 15 15 15 12 10 8 8 8 8 8 8 7 6 5 4 4 4 4 4 5 4 5 5 3 2 2 2 2 2 2 2 2 2 1 1 2
1 2 3 4 6 4 6 3 3 3 10 13 14 14 13 13 12 9 8 9 9 9 9 8 8 7 6 5 4 4 5 5 5 5 6 7 6 4 3 2 2 3 3 3 3 2 2 1 2
3 5 6 4 4 3 6 1 4 6 12 13 13 12 12 10 10 11 11 11 10 9 9 9 9 7 7 6 6 5 5 6 5 6 8 9 8 7 5 3 3 4 4 4 3 2 2 2 2
5 5 2 2 3 4 6 5 5 10 13 12 11 11 11 10 11 11 10 9 9 8 8 8 9 8 7 6 5 4 5 5 5 6 7 9 10 9 6 4 4 5 5 4 3 2 2 2 2
5 1 2 3 3 4 5 6 5 10 12 12 11 11 10 9 9 9 9 10 9 10 9 8 7 8 8 6 5 4 4 4 5 5 6 8 9 9 7 5 4 5 4 3 3 3 2 3 3
3 2 3 5 4 5 5 6 5 11 12 12 11 10 10 11 12 9 9 9 8 8 8 8 7 7 6 4 3 2 2 2 3 4 5 6 7 8 7 5 5 4 3 3 3 2 2 2 2
5 4 4 5 4 5 6 6 6 10 11 11 10 10 11 12 9 7 8 8 8 7 7 8 8 6 5 3 3 3 2 2 2 3 5 6 7 8 7 4 4 4 4 4 4 2 2 2 1
3 2 3 3 0 3 2 4 4 11 13 13 13 12 12 9 7 7 7 8 9 9 9 8 8 7 6 4 3 3 2 2 2 2 3 5 6 7 7 5 4 4 4 4 4 3 2 2 2
2 5 5 3 2 4 2 4 2 5 7 8 10 10 10 12 11 10 9 9 9 10 10 10 9 8 7 6 3 2 2 1 0 1 2 3 5 6 6 6 5 5 5 4 5 5 5 3 2
4 5 5 3 4 1 2 3 6 5 7 11 12 12 13 12 11 10 10 10 11 11 10 9 8 8 7 6 5 5 4 3 3 2 2 2 3 5 6 5 5 4 4 4 5 5 4 4 3
5 1 3 3 4 2 2 2 8 1 7 14 15 15 14 13 13 13 13 12 11 10 9 9 8 7 7 7 7 6 4 3 2 1 2 1 2 3 4 4 4 4 3 4 4 4 5 4 4
4 7 8 7 5 1 3 3 7 6 9 9 12 15 14 13 13 12 11 9 8 8 8 8 9 8 7 7 7 7 7 5 4 3 3 2 2 2 3 3 3 3 3 4 4 4 5 4 4
6 7 5 5 4 6 3 3 9 8 8 10 11 14 13 12 12 12 12 11 10 10 10 9 10 9 8 8 8 8 8 7 6 5 4 3 2 2 3 2 3 3 4 4 4 4 4 5 5
5 9 8 6 6 5 2 6 8 7 7 6 7 8 9 10 11 12 13 12 11 11 11 10 10 9 8 9 8 7 7 5 5 5 5 4 4 3 3 2 3 3 3 3 3 3 4 4 5
6 4 7 7 4 1 6 8 10 6 7 4 1 5 8 10 11 11 11 11 11 11 11 11 10 9 9 9 8 7 7 6 6 5 4 3 3 3 3 3 2 2 2 2 2 2 3 3 4
5 9 7 7 7 4 5 5 5 9 8 5 2 5 7 8 9 9 9 9 9 9 8 8 9 9 8 8 8 7 7 6 5 4 4 4 4 3 3 2 2 2 1 1 1 2 2 2 3
4 5 6 5 6 7 4 7 5 7 6 5 5 5 6 8 9 9 8 8 8 7 7 8 8 7 6 7 7 6 5 5 5 4 4 4 4 3 3 3 2 1 1 1 1 2 2 2 2
4 7 8 5 4 5 5 7 5 5 5 4 4 2 2 5 6 7 7 7 7 8 8 8 8 7 7 7 6 6 5 5 5 5 4 4 4 3 3 3 2 2 1 1 2 2 1 1 2
Wind_Direction
143 141 142 108 54 49 24 352 49 77 61 62 78 88 95 80 108 137 126 131 127 131 139 138 132 127 122 120 120 119 117 117 118 120 121 122 122 124 125 125 124 123 122 121 121 123 124 124 125
143 148 127 61 73 59 350 348 70 84 130 122 81 75 74 66 68 106 126 140 125 129 131 136 134 131 127 124 123 121 120 120 120 122 122 123 125 126 126 125 125 124 124 124 124 125 126 126 127
153 165 89 70 81 139 171 95 112 105 110 94 79 64 78 101 119 138 155 138 122 127 135 142 138 135 131 128 127 125 124 124 123 124 126 127 128 128 128 128 128 127 127 127 127 126 127 125 126
142 78 57 67 66 202 166 154 133 114 72 58 88 70 66 96 140 141 136 133 127 128 140 149 142 138 134 133 132 130 128 127 126 126 127 128 130 130 129 130 130 130 131 131 131 130 129 129 129
85 82 60 45 14 27 127 146 125 102 82 72 85 84 55 44 106 124 132 134 135 133 143 153 147 143 139 136 135 135 133 130 130 130 130 129 129 130 130 132 132 133 134 137 138 135 134 134 134
69 72 74 60 28 57 106 114 101 90 94 91 91 92 58 96 118 133 134 133 136 137 145 154 151 146 142 140 140 139 138 136 135 133 132 133 132 132 133 133 135 137 138 139 141 139 139 138 136
106 92 114 139 115 112 154 119 118 118 112 120 119 99 94 130 137 134 128 122 122 131 136 141 149 149 148 147 146 146 144 141 139 137 137 137 136 135 134 135 136 139 141 144 146 144 145 145 144
140 101 86 133 152 183 153 124 124 127 124 127 123 136 168 175 139 120 112 113 122 128 138 144 140 140 145 151 153 151 148 147 146 145 145 143 141 141 137 134 136 141 144 146 147 149 150 151 149
110 76 154 197 175 177 150 133 141 113 119 131 132 153 159 142 135 127 125 133 158 171 170 160 152 148 147 154 161 159 156 154 150 149 149 138 126 131 138 143 144 147 150 146 148 151 147 142 140
96 125 217 202 171 155 154 143 149 126 131 122 89 98 127 142 151 159 167 176 186 192 192 185 178 170 164 168 153 149 144 140 140 136 131 132 128 132 138 144 149 150 151 150 151 149 136 124 124
137 175 212 159 150 139 145 144 141 137 179 187 158 147 148 156 166 177 184 186 193 193 193 191 192 186 180 174 156 153 147 145 149 153 149 146 141 139 124 116 122 123 135 131 129 117 120 127 139
138 211 158 154 140 139 147 142 139 174 207 170 155 152 157 169 181 188 191 193 188 186 196 196 190 192 198 192 181 175 175 179 190 195 184 169 167 179 172 164 175 159 147 134 127 123 131 144 166
80 7 56 119 123 130 122 133 150 191 131 130 141 152 167 180 189 195 194 190 187 194 199 198 192 194 196 195 202 191 196 201 209 214 210 196 193 205 211 203 193 194 192 180 167 158 159 179 204
27 64 66 85 101 124 128 123 114 179 136 139 153 167 178 186 188 187 189 193 195 200 200 197 196 197 193 195 202 208 209 210 211 217 220 212 208 205 207 209 204 212 211 211 200 196 196 221 231
62 58 45 65 101 132 115 90 210 167 147 155 170 180 186 194 191 195 198 196 196 197 195 195 199 195 193 199 207 213 216 211 213 220 222 219 214 206 201 203 210 216 207 205 209 218 210 232 239
50 60 47 280 128 136 135 225 219 159 159 171 182 188 193 201 204 205 200 195 191 187 187 196 201 193 198 201 203 208 213 210 216 219 220 220 216 209 199 202 218 216 203 196 196 206 209 232 240
44 71 253 272 191 151 169 233 208 168 171 182 191 195 197 205 215 212 201 193 188 187 185 188 191 188 195 197 200 204 209 211 216 215 218 222 216 209 199 206 218 208 196 197 210 199 198 221 235
226 234 245 240 222 166 202 234 195 178 183 191 197 201 202 208 217 208 197 190 184 184 183 186 187 187 179 175 177 189 204 217 214 215 219 219 213 207 202 207 211 195 194 212 209 206 208 222 232
185 197 245 252 212 176 216 233 205 184 191 199 204 206 211 218 218 199 190 183 175 177 181 186 188 186 167 163 174 180 203 214 217 220 222 217 214 209 201 211 201 190 202 215 207 196 214 226 175
178 219 252 291 166 161 224 261 218 192 202 203 204 209 213 217 209 198 191 184 184 186 189 191 195 191 184 180 171 169 171 194 212 219 224 219 216 210 208 204 205 200 206 217 211 194 193 215 177
215 201 217 212 41 41 75 325 250 217 212 216 214 213 213 212 208 201 196 194 190 193 194 198 198 195 189 177 147 126 100 71 177 229 231 221 218 215 214 209 201 200 200 216 219 202 196 211 208
249 227 195 165 117 299 105 270 277 222 219 223 221 215 215 212 205 200 198 197 199 202 195 194 191 191 187 172 172 174 186 204 215 209 224 234 220 219 217 211 202 201 199 215 227 214 207 200 219
213 126 120 116 122 67 32 172 285 241 233 234 225 218 215 209 201 200 201 201 201 196 191 191 185 189 185 180 184 183 199 209 201 190 223 232 230 224 217 209 203 204 209 224 228 218 213 207 213
129 70 55 51 70 342 235 177 274 234 225 238 225 219 211 204 200 199 196 188 191 187 188 186 185 194 187 185 186 191 203 202 195 206 217 222 220 228 223 210 206 209 214 227 231 223 220 221 222
98 90 34 4 9 252 253 198 249 257 244 234 226 217 208 198 194 193 189 188 191 190 191 189 189 197 192 189 193 199 205 200 202 208 210 209 212 226 231 212 207 215 219 225 230 229 233 227 228
167 141 158 193 216 268 296 231 253 275 284 260 226 206 193 191 193 194 193 192 194 195 191 188 192 198 193 194 202 200 201 201 208 207 204 207 213 224 221 208 218 220 217 225 227 240 243 237 235
139 165 159 139 155 234 283 289 304 318 337 339 162 165 184 191 190 191 190 187 190 193 192 189 190 195 196 198 197 198 199 200 205 205 201 207 216 221 212 207 211 218 213 218 222 248 256 248 245
128 141 105 125 150 217 283 288 278 304 314 316 253 191 194 187 184 184 186 187 188 190 187 184 188 195 198 196 199 203 198 198 195 189 197 203 210 208 197 206 205 205 206 216 206 244 260 255 261
102 99 105 116 149 159 221 268 243 252 271 270 253 215 193 186 187 184 181 179 175 172 172 179 185 184 191 198 197 197 193 187 182 188 201 202 202 195 197 205 200 196 211 207 202 242 264 265 277
152 157 145 151 200 171 172 256 278 264 268 257 253 238 195 181 180 173 168 166 169 173 176 181 184 186 194 192 190 194 187 175 179 189 195 191 195 195 190 186 180 200 212 200 204 238 259 259 274
Height
1495 1496 1497 1500 1502 1512 1517 1510 1505 1506 1507 1508 1508 1509 1512 1516 1519 1525 1522 1522 1524 1525 1527 1529 1530 1532 1533 1533 1534 1535 1536 1537 1538 1540 1541 1542 1543 1544 1545 1546 1548 1549 1550 1551 1552 1553 1554 1555 1556
1496 1497 1500 1500 1510 1526 1521 1509 1508 1507 1508 1509 1510 1512 1514 1516 1517 1519 1521 1524 1525 1527 1529 1530 1532 1533 1535 1535 1536 1537 1538 1539 1541 1542 1543 1544 1545 1546 1547 1548 1549 1550 1551 1552 1553 1554 1556 1557 1558
1497 1499 1501 1503 1514 1523 1518 1509 1508 1508 1509 1509 1512 1514 1516 1518 1519 1521 1523 1525 1527 1529 1531 1532 1534 1535 1536 1537 1538 1539 1540 1541 1542 1543 1544 1545 1546 1548 1549 1550 1551 1552 1553 1554 1555 1556 1557 1558 1560
1498 1501 1502 1509 1515 1512 1510 1508 1508 1509 1510 1511 1513 1517 1519 1522 1522 1524 1525 1527 1529 1531 1533 1534 1536 1537 1538 1539 1540 1541 1542 1543 1544 1545 1546 1547 1548 1549 1550 1551 1552 1553 1554 1555 1556 1557 1559 1560 1561
1499 1501 1508 1517 1514 1509 1507 1508 1509 1510 1512 1514 1515 1519 1522 1524 1524 1526 1527 1529 1531 1533 1534 1536 1537 1539 1540 1541 1542 1543 1544 1545 1546 1547 1548 1549 1549 1550 1551 1552 1553 1554 1555 1556 1557 1558 1560 1561 1563
1500 1502 1518 1523 1515 1510 1509 1510 1511 1512 1514 1516 1517 1520 1524 1526 1527 1528 1530 1531 1533 1535 1536 1538 1539 1540 1541 1542 1543 1545 1546 1546 1547 1548 1549 1550 1551 1552 1552 1553 1554 1555 1556 1557 1558 1559 1561 1563 1564
1502 1507 1516 1517 1516 1513 1511 1511 1512 1514 1515 1518 1519 1521 1525 1527 1529 1530 1531 1533 1535 1536 1538 1539 1540 1542 1543 1544 1545 1546 1547 1548 1549 1550 1550 1551 1552 1553 1554 1554 1555 1556 1557 1558 1559 1560 1562 1563 1565
1500 1506 1515 1517 1516 1514 1511 1512 1513 1515 1517 1519 1520 1521 1524 1527 1529 1531 1533 1535 1536 1538 1539 1541 1542 1543 1544 1545 1546 1547 1548 1549 1550 1551 1552 1553 1553 1554 1555 1555 1556 1557 1558 1559 1560 1561 1563 1564 1566
1501 1511 1519 1515 1513 1511 1510 1512 1515 1516 1517 1519 1520 1521 1523 1527 1529 1532 1534 1535 1537 1539 1540 1542 1543 1544 1545 1546 1547 1548 1549 1550 1552 1552 1553 1554 1555 1555 1556 1557 1557 1558 1559 1560 1561 1562 1564 1565 1566
1501 1514 1511 1505 1504 1506 1509 1511 1514 1516 1518 1519 1520 1522 1525 1527 1530 1532 1533 1535 1537 1539 1541 1542 1544 1545 1546 1548 1548 1550 1551 1552 1553 1554 1554 1555 1556 1556 1557 1558 1558 1559 1560 1561 1562 1563 1565 1566 1567
1501 1506 1502 1502 1502 1504 1508 1512 1514 1515 1518 1517 1518 1521 1524 1527 1530 1532 1534 1536 1538 1540 1542 1543 1545 1546 1547 1548 1549 1551 1552 1553 1554 1555 1556 1556 1557 1558 1558 1559 1559 1560 1561 1562 1563 1564 1565 1567 1567
1501 1501 1500 1501 1503 1505 1508 1511 1514 1515 1515 1515 1518 1521 1524 1527 1529 1532 1534 1537 1539 1541 1542 1544 1546 1547 1548 1549 1550 1551 1553 1554 1555 1556 1557 1557 1558 1559 1559 1560 1561 1561 1562 1563 1564 1565 1566 1567 1568
1500 1501 1501 1502 1503 1506 1508 1511 1513 1514 1515 1517 1520 1523 1525 1527 1530 1533 1535 1538 1539 1541 1543 1544 1546 1547 1549 1550 1551 1552 1553 1554 1555 1556 1557 1558 1559 1560 1560 1561 1562 1562 1563 1564 1565 1566 1566 1567 1568
1501 1501 1502 1504 1505 1507 1510 1513 1515 1515 1516 1518 1521 1523 1526 1528 1530 1533 1535 1537 1539 1541 1543 1544 1546 1547 1549 1550 1551 1552 1554 1555 1556 1557 1558 1559 1560 1560 1561 1562 1562 1563 1563 1564 1565 1566 1567 1568 1568
1501 1504 1506 1506 1507 1509 1512 1516 1514 1514 1517 1519 1521 1524 1526 1528 1530 1532 1534 1536 1538 1540 1542 1544 1545 1547 1548 1549 1551 1552 1553 1554 1556 1557 1558 1559 1559 1560 1561 1562 1562 1563 1564 1564 1565 1566 1567 1567 1568
1504 1511 1517 1510 1508 1510 1516 1522 1513 1514 1516 1519 1521 1524 1526 1528 1529 1531 1533 1535 1538 1540 1541 1543 1544 1546 1547 1549 1550 1551 1553 1554 1555 1556 1557 1558 1559 1560 1561 1561 1562 1563 1564 1564 1564 1565 1566 1566 1567
1516 1523 1521 1514 1508 1509 1514 1517 1511 1513 1516 1518 1521 1523 1524 1526 1528 1530 1532 1535 1537 1539 1540 1542 1543 1545 1546 1548 1549 1550 1552 1553 1554 1555 1556 1557 1558 1559 1560 1561 1562 1562 1563 1564 1564 1564 1565 1565 1566
1522 1521 1519 1517 1509 1510 1514 1513 1510 1512 1514 1517 1519 1521 1523 1524 1525 1528 1531 1533 1536 1538 1540 1541 1542 1543 1545 1546 1547 1549 1550 1551 1553 1554 1555 1556 1557 1558 1559 1560 1560 1561 1562 1562 1563 1563 1564 1564 1564
1510 1515 1518 1512 1505 1509 1512 1511 1509 1511 1514 1516 1517 1519 1520 1521 1524 1527 1530 1532 1534 1536 1538 1539 1541 1542 1543 1545 1546 1547 1548 1550 1551 1552 1553 1554 1555 1556 1557 1558 1559 1560 1560 1561 1562 1562 1562 1563 1563
1508 1514 1515 1510 1505 1508 1512 1512 1508 1508 1509 1511 1513 1515 1517 1520 1522 1525 1527 1530 1532 1534 1536 1538 1539 1541 1542 1543 1545 1546 1547 1548 1549 1550 1551 1551 1553 1554 1555 1557 1557 1558 1559 1559 1560 1560 1560 1561 1561
1508 1512 1511 1512 1509 1509 1512 1516 1511 1508 1508 1510 1511 1513 1515 1517 1519 1522 1525 1527 1529 1531 1533 1536 1538 1539 1541 1542 1544 1545 1546 1546 1547 1548 1549 1550 1551 1552 1554 1555 1555 1556 1557 1557 1558 1558 1558 1559 1559
1510 1501 1503 1507 1517 1525 1519 1534 1515 1509 1508 1506 1507 1508 1510 1513 1516 1519 1522 1524 1526 1529 1531 1533 1536 1538 1539 1541 1542 1543 1543 1544 1545 1546 1547 1548 1549 1551 1552 1553 1553 1554 1554 1555 1555 1556 1556 1556 1556
1500 1497 1502 1508 1517 1527 1524 1532 1522 1510 1509 1503 1500 1502 1504 1508 1511 1514 1518 1521 1524 1527 1529 1531 1533 1535 1537 1539 1540 1541 1542 1543 1544 1545 1546 1547 1548 1549 1550 1551 1551 1552 1552 1552 1553 1553 1553 1553 1553
1495 1502 1510 1519 1527 1538 1528 1533 1527 1512 1503 1495 1493 1495 1498 1502 1506 1510 1514 1518 1521 1524 1526 1529 1531 1533 1535 1537 1538 1539 1540 1541 1543 1544 1545 1546 1547 1548 1549 1549 1550 1550 1550 1550 1550 1550 1550 1550 1550
1498 1516 1538 1540 1549 1544 1527 1529 1523 1497 1492 1489 1488 1489 1493 1498 1502 1506 1510 1514 1517 1520 1523 1526 1528 1530 1532 1534 1536 1537 1539 1540 1541 1542 1543 1544 1545 1546 1546 1547 1547 1547 1547 1548 1548 1548 1548 1548 1547
1500 1511 1537 1548 1550 1542 1529 1529 1508 1490 1487 1484 1484 1486 1490 1494 1497 1501 1506 1510 1514 1517 1520 1523 1525 1527 1530 1532 1534 1535 1537 1538 1539 1540 1541 1542 1543 1544 1544 1545 1545 1545 1545 1545 1545 1545 1545 1545 1544
1501 1509 1511 1531 1537 1541 1534 1521 1501 1487 1485 1483 1483 1485 1487 1490 1493 1498 1502 1506 1510 1514 1517 1520 1523 1525 1527 1529 1531 1533 1535 1536 1537 1538 1539 1540 1541 1542 1542 1542 1542 1543 1543 1542 1542 1542 1542 1542 1541
1492 1503 1519 1532 1546 1547 1534 1527 1518 1497 1491 1487 1485 1484 1485 1487 1491 1495 1499 1503 1508 1511 1514 1518 1520 1523 1525 1527 1529 1531 1532 1534 1536 1537 1538 1539 1539 1540 1540 1540 1540 1540 1540 1540 1540 1539 1539 1539 1538
1498 1506 1516 1529 1531 1544 1545 1531 1500 1496 1490 1487 1484 1483 1483 1485 1488 1492 1497 1501 1505 1509 1512 1515 1517 1519 1522 1525 1527 1529 1530 1532 1534 1535 1536 1537 1537 1538 1538 1538 1538 1538 1538 1538 1538 1537 1536 1536 1535
1490 1499 1510 1522 1529 1534 1537 1526 1490 1490 1487 1485 1483 1482 1483 1484 1487 1491 1495 1499 1503 1506 1509 1512 1514 1517 1519 1522 1524 1525 1527 1529 1530 1532 1533 1534 1535 1536 1536 1536 1536 1536 1536 1536 1536 1535 1534 1534 1533